This demonstration page uses our WeatherBlox Daily Observations layout. Learn more.

Hourly Observations for October 20, 2020

Temp ( °F °C ) Dew Point ( °F °C ) Humidity (%) Winds ( mph kmh ) Pressure ( in mb ) Visibility ( mi km ) Precip ( " mm )
12:54 am 00:54 Partly Cloudy 40 4.4 30 -1.1 68 68 ESE 7 11 30.2 1023 10 16.0934 0 0
1:42 am 01:42 Mostly Cloudy 40 4.4 29 -1.7 65 65 SE 6 9 30.22 1023 10 16.0934 0 0
1:54 am 01:54 Cloudy 40 4.4 29 -1.7 65 65 ESE 6 9 30.19 1022 10 16.0934 0 0
2:54 am 02:54 Mostly Cloudy 38 3.3 29 -1.7 70 70 E 7 11 30.16 1021 10 16.0934 0 0
3:12 am 03:12 Partly Cloudy 38 3.3 28 -2.2 68 68 ESE 5 7 30.2 1023 10 16.0934 0 0
3:27 am 03:27 Mostly Cloudy 39 3.9 27 -2.8 62 62 SE 9 15 30.19 1022 10 16.0934 0 0
3:54 am 03:54 Cloudy 39 3.9 27 -2.8 62 62 ESE 6 9 30.16 1021 10 16.0934 0 0
4:54 am 04:54 Cloudy 39 3.9 27 -2.8 62 62 SE 7 11 30.15 1021 10 16.0934 0 0
5:34 am 05:34 Cloudy 39 3.9 28 -2.2 65 65 SE 9 15 30.16 1021 10 16.0934 0 0
5:54 am 05:54 Cloudy 40 4.4 28 -2.2 63 63 SE 10 17 30.13 1020 10 16.0934 0 0
6:26 am 06:26 Cloudy 40 4.4 28 -2.2 63 63 SE 9 15 30.15 1021 10 16.0934 0 0
6:40 am 06:40 Cloudy 40 4.4 28 -2.2 63 63 SE 10 17 30.14 1021 10 16.0934 0 0
6:54 am 06:54 Cloudy 40 4.4 28 -2.2 63 63 SE 10 17 30.1 1019 10 16.0934 0 0
7:30 am 07:30 Cloudy 40 4.4 29 -1.7 65 65 SE 8 13 30.12 1020 10 16.0934 0 0
7:54 am 07:54 Cloudy 40 4.4 30 -1.1 68 68 SSE 13 20 30.09 1019 10 16.0934 0 0
8:38 am 08:38 Cloudy 40 4.4 31 -0.6 70 70 SE 13 20 30.12 1020 10 16.0934 0 0
8:54 am 08:54 Cloudy 40 4.4 31 -0.6 70 70 SSE 7 11 30.09 1019 10 16.0934 0 0
9:54 am 09:54 Cloudy 40 4.4 32 0 73 73 SE 7 11 30.1 1019 10 16.0934 0 0
10:35 am 10:35 Cloudy 40 4.4 33 0.6 77 77 SSE 9 15 30.12 1020 7 11.26538 0 0
10:37 am 10:37 Cloudy with Haze 40 4.4 34 1.1 79 79 S 10 17 30.12 1020 2 3.21868 0 0
10:54 am 10:54 Cloudy with Light Rain 39 3.9 36 2.2 89 89 SSE 12 19 30.09 1019 2 3.21868 0.001 0.001
11:00 am 11:00 Cloudy with Light Rain 39 3.9 36 2.2 89 89 SSE 10 17 30.11 1020 1.5 2.41401 0.001 0.001
11:14 am 11:14 Cloudy with Mist and Fog 39 3.9 36 2.2 89 89 SSE 8 13 30.1 1019 2.5 4.02335 0.001 0.001
11:22 am 11:22 Cloudy with Mist and Fog 40 4.4 37 2.8 89 89 SSE 8 13 30.1 1019 3 4.82802 0.001 0.001
11:44 am 11:44 Cloudy 40 4.4 36 2.2 86 86 SSE 8 13 30.1 1019 7 11.26538 0.001 0.001
11:54 am 11:54 Cloudy 41 5 37 2.8 86 86 SE 9 15 30.06 1018 7 11.26538 0.001 0.001
12:40 pm 12:40 Cloudy 42 5.6 36 2.2 79 79 SSE 9 15 30.07 1018 10 16.0934 0 0
12:54 pm 12:54 Cloudy 42 5.6 37 2.8 82 82 SSE 8 13 30.05 1018 10 16.0934 0 0
1:54 pm 13:54 Cloudy 43 6.1 37 2.8 80 80 S 7 11 30.03 1017 10 16.0934 0 0
2:54 pm 14:54 Cloudy 45 7.2 37 2.8 74 74 SSE 12 19 29.99 1016 10 16.0934 0 0
3:54 pm 15:54 Cloudy 46 7.8 38 3.3 73 73 S 10 17 29.98 1015 9 14.48406 0 0
4:54 pm 16:54 Cloudy 47 8.3 39 3.9 74 74 SSW 7 11 30.01 1016 10 16.0934 0 0
5:07 pm 17:07 Cloudy 47 8.3 39 3.9 74 74 SSW 5 7 30.02 1017 10 16.0934 0 0
5:51 pm 17:51 Cloudy 46 8 39 4 76 76 Calm 30.03 1017 10 16.0934 0 0
5:54 pm 17:54 Cloudy 47 8.3 39 3.9 74 74 SSE 3 6 30.03 1017 10 16.0934 0 0
6:23 pm 18:23 Partly Cloudy 45 7.2 38 3.3 77 77 S 6 9 30.03 1017 10 16.0934 0 0
6:54 pm 18:54 Clear 41 5 36 2.2 82 82 S 5 7 30.04 1017 10 16.0934 0 0
7:54 pm 19:54 Clear 40 4.4 37 2.8 89 89 S 6 9 30.05 1018 10 16.0934 0 0
8:54 pm 20:54 Clear 41 5 37 2.8 86 86 Calm 30.08 1019 9 14.48406 0 0
9:54 pm 21:54 Clear 42 5.6 38 3.3 85 85 Calm 30.11 1020 10 16.0934 0 0
10:54 pm 22:54 Clear 41 5 37 2.8 86 86 SSW 5 7 30.11 1020 9 14.48406 0 0
11:54 pm 23:54 Clear 40 4.4 37 2.8 89 89 Calm 30.14 1021 10 16.0934 0 0

Powered by AerisWeather